VCTRY47 KNTU-KNTU

Flight info

Callsign VCTRY47
Flight time 2h 58m
Altitude 17000
Route CANOB KW36A HOBOH ZIBUT KW45A IMELL KW36A ZINEP ROWZO HUGEE HENIP WENID
Aircraft F18/H-A/C

Departure

Time 2026-04-26 11:01
Airport Oceana Naval Air Station (KNTU)

Arrival

Time 2026-04-26 14:00
Airport Oceana Naval Air Station (KNTU)
Time Latitude Longitude Altitude Speed Heading
2026-04-26 10:48 36.81388 -76.03442 30 ft 0 kts 45°
2026-04-26 10:58 36.81469 -76.03476 30 ft 27 kts 310°
2026-04-26 10:58 36.81549 -76.03595 30 ft 15 kts 308°
2026-04-26 10:58 36.81559 -76.03609 30 ft 0 kts 313°
2026-04-26 10:58 36.81574 -76.03652 30 ft 12 kts 256°
2026-04-26 10:59 36.81484 -76.03760 30 ft 27 kts 222°
2026-04-26 10:59 36.81313 -76.03954 30 ft 40 kts 223°
2026-04-26 10:59 36.81077 -76.04219 30 ft 48 kts 222°
2026-04-26 10:59 36.80855 -76.04468 30 ft 28 kts 222°
2026-04-26 11:00 36.80672 -76.04673 30 ft 42 kts 224°
2026-04-26 11:00 36.80520 -76.04842 30 ft 10 kts 221°
2026-04-26 11:00 36.80529 -76.04910 30 ft 0 kts 317°
2026-04-26 11:00 36.80536 -76.04918 30 ft 6 kts 317°
2026-04-26 11:01 36.80600 -76.04931 30 ft 14 kts 38°
2026-04-26 11:01 36.80802 -76.04704 30 ft 106 kts 41°
2026-04-26 11:01 36.81624 -76.03747 519 ft 209 kts 43°
2026-04-26 11:01 36.82943 -76.02077 1062 ft 306 kts 45°
2026-04-26 11:02 36.84094 -75.99938 1512 ft 300 kts 67°
2026-04-26 11:02 36.84805 -75.97487 2003 ft 308 kts 68°
2026-04-26 11:02 36.85552 -75.94911 2502 ft 315 kts 68°
2026-04-26 11:02 36.86297 -75.92339 2989 ft 323 kts 68°
2026-04-26 11:03 36.87077 -75.89645 3493 ft 328 kts 68°
2026-04-26 11:03 36.87781 -75.86960 3974 ft 334 kts 78°
2026-04-26 11:03 36.88099 -75.84072 4482 ft 339 kts 82°
2026-04-26 11:03 36.88398 -75.81137 4994 ft 343 kts 82°
2026-04-26 11:04 36.88700 -75.78152 5509 ft 348 kts 83°
2026-04-26 11:04 36.89005 -75.75134 6026 ft 353 kts 83°
2026-04-26 11:04 36.89242 -75.72778 6428 ft 355 kts 83°
2026-04-26 11:04 36.89326 -75.71937 6572 ft 356 kts 83°
2026-04-26 11:05 36.89635 -75.68855 7099 ft 359 kts 83°
2026-04-26 11:05 36.89877 -75.65749 7627 ft 361 kts 88°
2026-04-26 11:05 36.90021 -75.62603 8164 ft 364 kts 87°
2026-04-26 11:05 36.90206 -75.59438 8703 ft 367 kts 87°
2026-04-26 11:06 36.90363 -75.56256 9247 ft 366 kts 88°
2026-04-26 11:06 36.90451 -75.54096 9616 ft 369 kts 88°
2026-04-26 11:06 36.90621 -75.49836 10345 ft 372 kts 88°
2026-04-26 11:06 36.90750 -75.46603 10900 ft 374 kts 89°
2026-04-26 11:07 36.90879 -75.43340 11460 ft 377 kts 89°
2026-04-26 11:07 36.91007 -75.40060 12023 ft 379 kts 89°
2026-04-26 11:07 36.91137 -75.36756 12591 ft 382 kts 89°
2026-04-26 11:07 36.91268 -75.33425 13163 ft 387 kts 89°
2026-04-26 11:08 36.91390 -75.30053 13739 ft 390 kts 90°
2026-04-26 11:08 36.91463 -75.26652 14322 ft 394 kts 90°
2026-04-26 11:08 36.91532 -75.23211 14908 ft 398 kts 90°
2026-04-26 11:08 36.91602 -75.19735 15500 ft 403 kts 90°
2026-04-26 11:09 36.91671 -75.16247 16094 ft 403 kts 90°
2026-04-26 11:09 36.91740 -75.12711 16695 ft 410 kts 90°
2026-04-26 11:09 36.91810 -75.09121 17044 ft 416 kts 89°
2026-04-26 11:09 36.91879 -75.05546 16999 ft 411 kts 90°
2026-04-26 11:10 36.91947 -75.01964 17048 ft 413 kts 89°
2026-04-26 11:10 36.92015 -74.98369 17030 ft 413 kts 90°
2026-04-26 11:10 36.92082 -74.94784 17027 ft 412 kts 90°
2026-04-26 11:10 36.92147 -74.91222 17032 ft 411 kts 90°
2026-04-26 11:11 36.92213 -74.87640 17030 ft 413 kts 90°
2026-04-26 11:11 36.92277 -74.84062 17030 ft 411 kts 90°
2026-04-26 11:11 36.92333 -74.80481 17030 ft 412 kts 90°
2026-04-26 11:11 36.92548 -74.76914 17029 ft 413 kts 81°
2026-04-26 11:12 36.93063 -74.73375 17033 ft 414 kts 80°
2026-04-26 11:12 36.93589 -74.69843 17028 ft 413 kts 80°
2026-04-26 11:12 36.94114 -74.66315 17029 ft 411 kts 80°
2026-04-26 11:12 36.94639 -74.62802 17028 ft 412 kts 80°
2026-04-26 11:13 36.95162 -74.59274 17031 ft 413 kts 80°
2026-04-26 11:13 36.95680 -74.55748 17030 ft 412 kts 80°
2026-04-26 11:13 36.96193 -74.52223 17030 ft 412 kts 80°
2026-04-26 11:13 36.96694 -74.48741 17030 ft 412 kts 81°
2026-04-26 11:14 36.97203 -74.45163 17030 ft 412 kts 81°
2026-04-26 11:14 36.97701 -74.41629 17028 ft 413 kts 81°
2026-04-26 11:14 36.98193 -74.38097 17032 ft 412 kts 81°
2026-04-26 11:14 36.98515 -74.35760 17031 ft 412 kts 81°
2026-04-26 11:15 36.99170 -74.31034 17029 ft 412 kts 78°
2026-04-26 11:15 37.00221 -74.27767 17031 ft 412 kts 55°
2026-04-26 11:15 37.02218 -74.25172 17039 ft 410 kts 32°
2026-04-26 11:15 37.04703 -74.23561 17037 ft 408 kts 22°
2026-04-26 11:16 37.07256 -74.22045 17014 ft 407 kts 25°
2026-04-26 11:16 37.09763 -74.20378 17034 ft 409 kts 28°
2026-04-26 11:16 37.12183 -74.18511 17031 ft 408 kts 32°
2026-04-26 11:16 37.14468 -74.16364 17028 ft 412 kts 39°
2026-04-26 11:17 37.16508 -74.13845 17029 ft 413 kts 49°
2026-04-26 11:17 37.18123 -74.10871 17030 ft 414 kts 63°
2026-04-26 11:17 37.19110 -74.07496 17034 ft 414 kts 78°
2026-04-26 11:17 37.19577 -74.03951 15418 ft 415 kts 89°
2026-04-26 11:18 37.19442 -74.00287 12866 ft 408 kts 99°
2026-04-26 11:18 37.19090 -73.97048 10568 ft 347 kts 102°
2026-04-26 11:18 37.18713 -73.94235 8572 ft 309 kts 103°
2026-04-26 11:18 37.18347 -73.91703 6777 ft 283 kts 103°
2026-04-26 11:19 37.17994 -73.89364 5114 ft 263 kts 104°
2026-04-26 11:19 37.17658 -73.87179 3552 ft 248 kts 104°
2026-04-26 11:19 37.17334 -73.85113 2063 ft 235 kts 104°
2026-04-26 11:19 37.17045 -73.83249 1613 ft 203 kts 104°
2026-04-26 11:20 37.16745 -73.81412 1757 ft 224 kts 104°
2026-04-26 11:20 37.16525 -73.80103 1671 ft 238 kts 105°
2026-04-26 11:20 37.16101 -73.78036 1688 ft 251 kts 109°
2026-04-26 11:20 37.15623 -73.75887 1731 ft 262 kts 109°
2026-04-26 11:21 37.15071 -73.73702 1735 ft 267 kts 111°
2026-04-26 11:21 37.14461 -73.71428 1794 ft 283 kts 111°
2026-04-26 11:21 37.13848 -73.69212 1789 ft 249 kts 113°
2026-04-26 11:21 37.13219 -73.67319 1732 ft 228 kts 117°
2026-04-26 11:22 37.12668 -73.65505 1710 ft 217 kts 112°
2026-04-26 11:22 37.12100 -73.63609 1722 ft 251 kts 114°
2026-04-26 11:22 37.11400 -73.61455 1818 ft 283 kts 115°
2026-04-26 11:22 37.10596 -73.59111 2051 ft 298 kts 117°
2026-04-26 11:23 37.09875 -73.56677 2246 ft 304 kts 109°
2026-04-26 11:23 37.09253 -73.54111 2264 ft 312 kts 110°
2026-04-26 11:23 37.08711 -73.51456 2340 ft 319 kts 104°
2026-04-26 11:23 37.08321 -73.48684 2343 ft 332 kts 101°
2026-04-26 11:24 37.07971 -73.45714 2352 ft 356 kts 101°
2026-04-26 11:24 37.07574 -73.42564 2400 ft 375 kts 100°
2026-04-26 11:24 37.07148 -73.39261 2274 ft 394 kts 102°
2026-04-26 11:24 37.06689 -73.35830 2278 ft 405 kts 101°
2026-04-26 11:25 37.06342 -73.32284 2314 ft 414 kts 98°
2026-04-26 11:25 37.06064 -73.28658 2195 ft 415 kts 95°
2026-04-26 11:25 37.05948 -73.25373 2468 ft 345 kts 95°
2026-04-26 11:25 37.06510 -73.22622 2311 ft 321 kts 34°
2026-04-26 11:26 37.08093 -73.22975 2099 ft 220 kts 296°
2026-04-26 11:26 37.08759 -73.24475 1731 ft 178 kts 292°
2026-04-26 11:26 37.09147 -73.25724 1318 ft 144 kts 254°
2026-04-26 11:26 37.08548 -73.26579 961 ft 136 kts 190°
2026-04-26 11:27 37.07763 -73.26125 721 ft 140 kts 118°
2026-04-26 11:27 37.07449 -73.24965 460 ft 139 kts 107°
2026-04-26 11:27 37.07216 -73.23815 299 ft 138 kts 109°
2026-04-26 11:27 37.06972 -73.22639 85 ft 137 kts 108°
2026-04-26 11:28 37.06857 -73.22146 73 ft 35 kts 101°
2026-04-26 11:28 37.06771 -73.21855 73 ft 37 kts 137°
2026-04-26 11:28 37.06666 -73.21568 73 ft 35 kts 137°
2026-04-26 11:28 37.06583 -73.21281 73 ft 35 kts 137°
2026-04-26 11:29 37.06499 -73.20995 73 ft 35 kts 137°
2026-04-26 11:29 37.06416 -73.20708 73 ft 35 kts 137°
2026-04-26 11:29 37.06333 -73.20422 73 ft 35 kts 137°
2026-04-26 11:29 37.06249 -73.20136 73 ft 35 kts 137°
2026-04-26 11:30 37.06166 -73.19850 73 ft 35 kts 137°
2026-04-26 11:30 37.06110 -73.19656 73 ft 35 kts 137°
2026-04-26 11:30 37.06000 -73.19277 73 ft 35 kts 137°
2026-04-26 11:30 37.05916 -73.18991 73 ft 35 kts 137°
2026-04-26 11:31 37.05832 -73.18704 73 ft 36 kts 136°
2026-04-26 11:31 37.05762 -73.18412 73 ft 28 kts 312°
2026-04-26 11:31 37.05694 -73.18200 73 ft 28 kts 274°
2026-04-26 11:31 37.05623 -73.17933 73 ft 38 kts 70°
2026-04-26 11:32 37.05538 -73.17611 73 ft 38 kts 107°
2026-04-26 11:32 37.05454 -73.17318 73 ft 35 kts 106°
2026-04-26 11:32 37.05370 -73.17032 73 ft 35 kts 106°
2026-04-26 11:32 37.05287 -73.16745 73 ft 35 kts 106°
2026-04-26 11:33 37.05203 -73.16459 73 ft 35 kts 106°
2026-04-26 11:33 37.05120 -73.16173 73 ft 35 kts 106°
2026-04-26 11:33 37.05037 -73.15886 73 ft 35 kts 106°
2026-04-26 11:33 37.04954 -73.15600 73 ft 35 kts 106°
2026-04-26 11:34 37.04870 -73.15313 73 ft 35 kts 105°
2026-04-26 11:34 37.04787 -73.15027 73 ft 35 kts 105°
2026-04-26 11:34 37.04704 -73.14741 73 ft 35 kts 105°
2026-04-26 11:34 37.04621 -73.14455 73 ft 35 kts 105°
2026-04-26 11:35 37.04537 -73.14168 73 ft 35 kts 105°
2026-04-26 11:35 37.04454 -73.13882 73 ft 35 kts 105°
2026-04-26 11:35 37.04264 -73.13081 201 ft 254 kts 108°
2026-04-26 11:35 37.03752 -73.10717 1332 ft 305 kts 106°
2026-04-26 11:36 37.03244 -73.08083 3075 ft 309 kts 105°
2026-04-26 11:36 37.02888 -73.05529 5247 ft 287 kts 98°
2026-04-26 11:36 37.02773 -73.03020 7106 ft 307 kts 97°
2026-04-26 11:36 37.02587 -73.00260 9164 ft 340 kts 97°
2026-04-26 11:37 37.02319 -72.97160 11489 ft 374 kts 102°
2026-04-26 11:37 37.01909 -72.94032 13851 ft 355 kts 102°
2026-04-26 11:37 37.01510 -72.91051 16090 ft 340 kts 102°
2026-04-26 11:37 37.01106 -72.88137 17655 ft 360 kts 102°
2026-04-26 11:38 37.00613 -72.84754 17116 ft 421 kts 102°
2026-04-26 11:38 37.00084 -72.81159 17035 ft 417 kts 102°
2026-04-26 11:38 36.99556 -72.77571 17138 ft 421 kts 102°
2026-04-26 11:38 36.99028 -72.73980 17112 ft 418 kts 102°
2026-04-26 11:39 36.98500 -72.70397 17100 ft 420 kts 102°
2026-04-26 11:39 36.97970 -72.66800 17114 ft 421 kts 102°
2026-04-26 11:39 36.97438 -72.63201 17110 ft 421 kts 102°
2026-04-26 11:39 36.96906 -72.59601 17109 ft 421 kts 102°
2026-04-26 11:40 36.96377 -72.56007 17110 ft 421 kts 102°
2026-04-26 11:40 36.95845 -72.52411 17110 ft 421 kts 102°
2026-04-26 11:40 36.95311 -72.48808 17111 ft 421 kts 102°
2026-04-26 11:40 36.94776 -72.45210 17110 ft 421 kts 102°
2026-04-26 11:41 36.94241 -72.41609 17109 ft 421 kts 102°
2026-04-26 11:42 36.83317 -72.25212 17112 ft 384 kts 200°
2026-04-26 11:43 36.80988 -72.26748 17112 ft 380 kts 221°
2026-04-26 11:43 36.79314 -72.29260 17109 ft 379 kts 243°
2026-04-26 11:43 36.78542 -72.32376 17111 ft 379 kts 264°
2026-04-26 11:43 36.78785 -72.35647 17111 ft 383 kts 284°
2026-04-26 11:44 36.79623 -72.38801 17104 ft 383 kts 285°
2026-04-26 11:44 36.80237 -72.42020 17110 ft 382 kts 282°
2026-04-26 11:44 36.80875 -72.45240 17106 ft 382 kts 282°
2026-04-26 11:44 36.81521 -72.48458 17111 ft 382 kts 282°
2026-04-26 11:45 36.82166 -72.51674 17107 ft 382 kts 282°
2026-04-26 11:45 36.82812 -72.54895 17111 ft 382 kts 282°
2026-04-26 11:45 36.83457 -72.58113 17110 ft 382 kts 282°
2026-04-26 11:45 36.84102 -72.61329 17110 ft 382 kts 282°
2026-04-26 11:46 36.84749 -72.64548 17111 ft 383 kts 282°
2026-04-26 11:46 36.85397 -72.67771 17107 ft 382 kts 282°
2026-04-26 11:46 36.86046 -72.70993 17111 ft 383 kts 282°
2026-04-26 11:46 36.86693 -72.74212 17110 ft 383 kts 282°
2026-04-26 11:47 36.87342 -72.77438 17110 ft 382 kts 282°
2026-04-26 11:47 36.87989 -72.80655 17111 ft 383 kts 282°
2026-04-26 11:47 36.88638 -72.83880 17110 ft 382 kts 282°
2026-04-26 11:47 36.89285 -72.87099 17110 ft 383 kts 282°
2026-04-26 11:48 36.89933 -72.90319 17110 ft 383 kts 282°
2026-04-26 11:48 36.90582 -72.93548 17111 ft 383 kts 282°
2026-04-26 11:48 36.91230 -72.96770 17110 ft 383 kts 282°
2026-04-26 11:48 36.91879 -72.99991 17107 ft 383 kts 282°
2026-04-26 11:49 36.92531 -73.03219 17111 ft 383 kts 282°
2026-04-26 11:49 36.93182 -73.06447 17111 ft 383 kts 282°
2026-04-26 11:49 36.93832 -73.09670 17109 ft 383 kts 282°
2026-04-26 11:49 36.94481 -73.12905 17110 ft 384 kts 282°
2026-04-26 11:50 36.95129 -73.16140 17110 ft 384 kts 282°
2026-04-26 11:50 36.95777 -73.19375 17109 ft 383 kts 282°
2026-04-26 11:50 36.96425 -73.22608 17111 ft 384 kts 282°
2026-04-26 11:50 36.97064 -73.25799 17107 ft 382 kts 282°
2026-04-26 11:51 36.97709 -73.29020 17111 ft 383 kts 282°
2026-04-26 11:51 36.98358 -73.32259 17110 ft 384 kts 282°
2026-04-26 11:51 36.99004 -73.35480 17111 ft 382 kts 282°
2026-04-26 11:51 36.99653 -73.38711 17111 ft 384 kts 282°
2026-04-26 11:52 37.00303 -73.41949 17110 ft 384 kts 282°
2026-04-26 11:52 37.00717 -73.44148 17111 ft 384 kts 281°
2026-04-26 11:52 37.01482 -73.48462 17110 ft 384 kts 280°
2026-04-26 11:52 37.02056 -73.51715 17110 ft 383 kts 280°
2026-04-26 11:53 37.02632 -73.54976 17111 ft 384 kts 280°
2026-04-26 11:53 37.03448 -73.58154 17104 ft 388 kts 296°
2026-04-26 11:53 37.05133 -73.60800 17119 ft 395 kts 317°
2026-04-26 11:54 37.10300 -73.63112 17107 ft 411 kts 359°
2026-04-26 11:54 37.13123 -73.62422 17110 ft 418 kts 20°
2026-04-26 11:54 37.15621 -73.60544 17109 ft 423 kts 40°
2026-04-26 11:54 37.17479 -73.57709 17110 ft 424 kts 61°
2026-04-26 11:55 37.18478 -73.54248 17110 ft 423 kts 82°
2026-04-26 11:55 37.18534 -73.50580 17125 ft 421 kts 97°
2026-04-26 11:55 37.18251 -73.46942 17098 ft 420 kts 97°
2026-04-26 11:55 37.17957 -73.43291 17107 ft 420 kts 97°
2026-04-26 11:56 37.17662 -73.39652 17111 ft 421 kts 97°
2026-04-26 11:56 37.17365 -73.35998 17110 ft 420 kts 97°
2026-04-26 11:56 37.17069 -73.32351 17110 ft 420 kts 97°
2026-04-26 11:56 37.16773 -73.28709 17110 ft 420 kts 97°
2026-04-26 11:57 37.16400 -73.25079 17112 ft 420 kts 100°
2026-04-26 11:57 37.15965 -73.21460 17108 ft 420 kts 100°
2026-04-26 11:57 37.15528 -73.17839 17110 ft 421 kts 100°
2026-04-26 11:57 37.15093 -73.14213 17110 ft 421 kts 100°
2026-04-26 11:58 37.14658 -73.10585 17110 ft 421 kts 100°
2026-04-26 11:58 37.14224 -73.06958 17110 ft 421 kts 100°
2026-04-26 11:58 37.13790 -73.03338 17110 ft 421 kts 100°
2026-04-26 11:58 37.13356 -72.99720 17111 ft 418 kts 100°
2026-04-26 11:59 37.12920 -72.96100 17111 ft 421 kts 100°
2026-04-26 11:59 37.12484 -72.92487 17110 ft 418 kts 100°
2026-04-26 11:59 37.12048 -72.88872 17112 ft 421 kts 100°
2026-04-26 11:59 37.11610 -72.85244 17109 ft 421 kts 100°
2026-04-26 12:00 37.11171 -72.81615 17110 ft 421 kts 100°
2026-04-26 12:00 37.10732 -72.78000 17110 ft 418 kts 100°
2026-04-26 12:00 37.10300 -72.74431 17111 ft 422 kts 100°
2026-04-26 12:00 37.09863 -72.70795 17109 ft 422 kts 100°
2026-04-26 12:01 37.09426 -72.67162 17109 ft 421 kts 100°
2026-04-26 12:01 37.08992 -72.63552 17112 ft 421 kts 100°
2026-04-26 12:01 37.08556 -72.59933 17110 ft 420 kts 100°
2026-04-26 12:01 37.08117 -72.56304 17110 ft 422 kts 100°
2026-04-26 12:02 37.07678 -72.52671 17110 ft 422 kts 100°
2026-04-26 12:02 37.07381 -72.50220 17110 ft 422 kts 100°
2026-04-26 12:02 37.06799 -72.45408 17110 ft 422 kts 100°
2026-04-26 12:02 37.06359 -72.41771 17110 ft 422 kts 100°
2026-04-26 12:03 37.05920 -72.38141 17110 ft 422 kts 100°
2026-04-26 12:03 37.05480 -72.34509 17110 ft 422 kts 100°
2026-04-26 12:03 37.05040 -72.30876 17111 ft 422 kts 100°
2026-04-26 12:03 37.04601 -72.27244 17110 ft 422 kts 100°
2026-04-26 12:04 37.04162 -72.23617 17109 ft 422 kts 100°
2026-04-26 12:04 37.03721 -72.19981 17111 ft 422 kts 100°
2026-04-26 12:04 37.03424 -72.16329 17096 ft 424 kts 88°
2026-04-26 12:04 37.04082 -72.12745 17119 ft 426 kts 65°
2026-04-26 12:05 37.05724 -72.09696 17114 ft 424 kts 43°
2026-04-26 12:05 37.08113 -72.07611 17107 ft 416 kts 20°
2026-04-26 12:05 37.10900 -72.06791 17114 ft 411 kts 358°
2026-04-26 12:05 37.13683 -72.07326 17110 ft 402 kts 335°
2026-04-26 12:06 37.16025 -72.09112 17112 ft 391 kts 312°
2026-04-26 12:06 37.17567 -72.11842 17111 ft 382 kts 289°
2026-04-26 12:06 37.18332 -72.15014 17105 ft 380 kts 282°
2026-04-26 12:06 37.18716 -72.18266 17110 ft 378 kts 276°
2026-04-26 12:07 37.19113 -72.21522 17110 ft 378 kts 277°
2026-04-26 12:07 37.19525 -72.24776 17109 ft 378 kts 276°
2026-04-26 12:07 37.19584 -72.26939 17112 ft 375 kts 261°
2026-04-26 12:07 37.18264 -72.30917 17117 ft 375 kts 230°
2026-04-26 12:08 37.16995 -72.32384 17103 ft 377 kts 215°
2026-04-26 12:08 37.14569 -72.33677 17111 ft 384 kts 198°
2026-04-26 12:08 37.11945 -72.34369 17102 ft 386 kts 192°
2026-04-26 12:08 37.09256 -72.34755 17105 ft 393 kts 186°
2026-04-26 12:09 37.06523 -72.34801 17112 ft 391 kts 182°
2026-04-26 12:09 37.03792 -72.34753 17108 ft 394 kts 182°
2026-04-26 12:09 37.01054 -72.34532 17098 ft 398 kts 169°
2026-04-26 12:09 36.98456 -72.33274 17125 ft 404 kts 157°
2026-04-26 12:10 36.95926 -72.31742 17108 ft 404 kts 156°
2026-04-26 12:10 36.93579 -72.29798 16925 ft 407 kts 143°
2026-04-26 12:10 36.91534 -72.27223 16451 ft 432 kts 129°
2026-04-26 12:10 36.90085 -72.24058 16375 ft 400 kts 112°
2026-04-26 12:11 36.89663 -72.20813 16580 ft 367 kts 78°
2026-04-26 12:11 36.90956 -72.18399 16807 ft 325 kts 31°
2026-04-26 12:11 36.93099 -72.17445 16555 ft 344 kts
2026-04-26 12:11 36.95590 -72.17298 16661 ft 374 kts 354°
2026-04-26 12:12 36.98278 -72.17526 16737 ft 397 kts 353°
2026-04-26 12:12 37.01028 -72.17716 16812 ft 393 kts 354°
2026-04-26 12:12 37.03737 -72.17825 16872 ft 387 kts 355°
2026-04-26 12:12 37.05514 -72.17907 16914 ft 384 kts 355°
2026-04-26 12:13 37.09051 -72.17975 16915 ft 366 kts 356°
2026-04-26 12:13 37.11501 -72.18010 16943 ft 342 kts 356°
2026-04-26 12:13 37.13852 -72.18022 16940 ft 339 kts 356°
2026-04-26 12:13 37.16217 -72.18024 16945 ft 339 kts 356°
2026-04-26 12:14 37.18583 -72.18021 16955 ft 341 kts 356°
2026-04-26 12:14 37.20965 -72.18021 16933 ft 345 kts 357°
2026-04-26 12:14 37.23333 -72.18017 16948 ft 338 kts 356°
2026-04-26 12:14 37.25696 -72.18011 16951 ft 342 kts 355°
2026-04-26 12:15 37.28022 -72.18214 16931 ft 331 kts 341°
2026-04-26 12:15 37.30096 -72.19341 16980 ft 323 kts 320°
2026-04-26 12:15 37.31668 -72.21280 16973 ft 316 kts 299°
2026-04-26 12:15 37.32552 -72.23757 16975 ft 310 kts 281°
2026-04-26 12:16 37.32826 -72.26390 16989 ft 308 kts 269°
2026-04-26 12:16 37.32750 -72.29071 16979 ft 307 kts 264°
2026-04-26 12:16 37.32567 -72.31746 16967 ft 307 kts 264°
2026-04-26 12:16 37.32315 -72.34406 16916 ft 306 kts 253°
2026-04-26 12:17 37.31360 -72.36768 16967 ft 306 kts 231°
2026-04-26 12:17 37.29734 -72.38501 17004 ft 311 kts 210°
2026-04-26 12:17 37.27671 -72.39383 16996 ft 317 kts 192°
2026-04-26 12:17 37.25467 -72.39653 16990 ft 320 kts 185°
2026-04-26 12:18 37.23238 -72.39658 16971 ft 321 kts 182°
2026-04-26 12:18 37.21003 -72.39562 16960 ft 321 kts 181°
2026-04-26 12:18 37.18776 -72.39438 16953 ft 320 kts 181°
2026-04-26 12:18 37.16550 -72.39319 16944 ft 320 kts 181°
2026-04-26 12:19 37.14326 -72.39216 16929 ft 319 kts 182°
2026-04-26 12:19 37.12107 -72.39134 16907 ft 320 kts 182°
2026-04-26 12:19 37.09881 -72.39070 16916 ft 320 kts 182°
2026-04-26 12:19 37.07652 -72.39023 16951 ft 321 kts 182°
2026-04-26 12:20 37.05417 -72.38990 16965 ft 322 kts 183°
2026-04-26 12:20 37.03178 -72.38967 16956 ft 322 kts 183°
2026-04-26 12:20 37.00938 -72.38953 16924 ft 322 kts 183°
2026-04-26 12:20 36.98699 -72.38945 16896 ft 321 kts 183°
2026-04-26 12:21 36.96465 -72.38941 16917 ft 321 kts 183°
2026-04-26 12:21 36.94230 -72.38941 16953 ft 322 kts 183°
2026-04-26 12:21 36.91989 -72.38941 16956 ft 322 kts 183°
2026-04-26 12:21 36.89744 -72.38941 16921 ft 323 kts 183°
2026-04-26 12:22 36.87503 -72.38780 16872 ft 326 kts 170°
2026-04-26 12:22 36.85399 -72.37683 16959 ft 334 kts 149°
2026-04-26 12:22 36.83687 -72.35702 16981 ft 341 kts 128°
2026-04-26 12:22 36.82605 -72.33051 16962 ft 346 kts 107°
2026-04-26 12:23 36.82209 -72.30091 16986 ft 348 kts 93°
2026-04-26 12:23 36.82261 -72.27067 16985 ft 349 kts 86°
2026-04-26 12:23 36.82646 -72.24117 16927 ft 350 kts 70°
2026-04-26 12:23 36.83788 -72.21461 16976 ft 348 kts 49°
2026-04-26 12:24 36.85573 -72.19459 16992 ft 345 kts 28°
2026-04-26 12:24 36.87771 -72.18334 16980 ft 340 kts
2026-04-26 12:24 36.90097 -72.17892 16994 ft 337 kts
2026-04-26 12:25 36.94772 -72.17753 16962 ft 336 kts 355°
2026-04-26 12:25 36.97103 -72.17797 16957 ft 335 kts 355°
2026-04-26 12:25 36.99432 -72.17853 16951 ft 335 kts 355°
2026-04-26 12:25 37.01765 -72.17907 16954 ft 335 kts 355°
2026-04-26 12:26 37.04100 -72.17952 16960 ft 336 kts 355°
2026-04-26 12:26 37.05529 -72.17982 16926 ft 333 kts 348°
2026-04-26 12:26 37.05724 -72.18007 16916 ft 330 kts 343°
2026-04-26 12:26 37.07744 -72.19178 17007 ft 330 kts 314°
2026-04-26 12:27 37.09148 -72.21569 17061 ft 358 kts 289°
2026-04-26 12:27 37.09601 -72.24749 17045 ft 391 kts 265°
2026-04-26 12:27 37.08916 -72.28169 17047 ft 425 kts 243°
2026-04-26 12:27 37.07114 -72.31265 17050 ft 459 kts 224°
2026-04-26 12:28 37.04380 -72.33549 17046 ft 490 kts 205°
2026-04-26 12:28 37.01008 -72.34668 17048 ft 516 kts 187°
2026-04-26 12:28 36.97374 -72.34428 17048 ft 534 kts 169°
2026-04-26 12:28 36.93863 -72.32805 17049 ft 546 kts 152°
2026-04-26 12:29 36.90815 -72.29918 17051 ft 556 kts 135°
2026-04-26 12:29 36.88523 -72.26016 17050 ft 562 kts 118°
2026-04-26 12:29 36.86633 -72.16552 17045 ft 568 kts 97°
2026-04-26 12:30 36.86194 -72.11638 17044 ft 569 kts 97°
2026-04-26 12:30 36.85767 -72.06734 17050 ft 570 kts 97°
2026-04-26 12:30 36.85338 -72.01812 17050 ft 570 kts 97°
2026-04-26 12:31 36.84494 -71.92074 17056 ft 538 kts 97°
2026-04-26 12:31 36.84110 -71.87586 17050 ft 508 kts 97°
2026-04-26 12:31 36.83880 -71.83207 17034 ft 506 kts 86°
2026-04-26 12:31 36.84631 -71.78927 17064 ft 508 kts 67°
2026-04-26 12:32 36.86418 -71.75131 17062 ft 510 kts 49°
2026-04-26 12:32 36.89067 -71.72205 17055 ft 510 kts 30°
2026-04-26 12:32 36.95759 -71.70055 17054 ft 497 kts 352°
2026-04-26 12:33 36.99109 -71.71045 17048 ft 496 kts 334°
2026-04-26 12:33 37.01976 -71.73281 17040 ft 479 kts 315°
2026-04-26 12:33 37.04015 -71.76474 17068 ft 465 kts 295°
2026-04-26 12:33 37.05111 -71.80228 17049 ft 459 kts 283°
2026-04-26 12:34 37.05858 -71.84059 17042 ft 460 kts 282°
2026-04-26 12:34 37.06606 -71.88016 17059 ft 464 kts 282°
2026-04-26 12:34 37.07340 -71.91918 17034 ft 468 kts 279°
2026-04-26 12:34 37.07530 -71.96014 17080 ft 467 kts 268°
2026-04-26 12:35 37.07414 -72.00078 17032 ft 478 kts 267°
2026-04-26 12:35 37.07278 -72.04193 17054 ft 471 kts 267°
2026-04-26 12:35 37.07141 -72.08311 17050 ft 476 kts 266°
2026-04-26 12:35 37.07004 -72.12428 17049 ft 471 kts 267°
2026-04-26 12:36 37.06867 -72.16538 17049 ft 476 kts 267°
2026-04-26 12:36 37.06729 -72.20694 17050 ft 475 kts 267°
2026-04-26 12:36 37.06592 -72.24798 17051 ft 472 kts 267°
2026-04-26 12:36 37.06454 -72.28920 17050 ft 477 kts 267°
2026-04-26 12:37 37.06314 -72.33059 17050 ft 472 kts 267°
2026-04-26 12:37 37.06175 -72.37163 17051 ft 474 kts 267°
2026-04-26 12:37 37.06034 -72.41308 17049 ft 477 kts 267°
2026-04-26 12:37 37.05893 -72.45425 17051 ft 471 kts 267°
2026-04-26 12:38 37.05752 -72.49534 17050 ft 476 kts 267°
2026-04-26 12:38 37.05608 -72.53688 17050 ft 475 kts 267°
2026-04-26 12:38 37.05466 -72.57794 17051 ft 471 kts 267°
2026-04-26 12:38 37.05322 -72.61906 17049 ft 476 kts 266°
2026-04-26 12:39 37.05176 -72.66048 17049 ft 473 kts 267°
2026-04-26 12:39 37.05032 -72.70151 17051 ft 473 kts 267°
2026-04-26 12:39 37.04884 -72.74287 17049 ft 477 kts 267°
2026-04-26 12:39 37.04737 -72.78400 17050 ft 471 kts 267°
2026-04-26 12:40 37.04638 -72.81172 17051 ft 473 kts 267°
2026-04-26 12:40 37.04439 -72.86655 17049 ft 472 kts 267°
2026-04-26 12:40 37.04291 -72.90745 17054 ft 471 kts 266°
2026-04-26 12:40 37.04142 -72.94865 17047 ft 475 kts 267°
2026-04-26 12:41 37.03991 -72.98991 17051 ft 473 kts 267°
2026-04-26 12:41 37.03621 -73.03052 17051 ft 468 kts 253°
2026-04-26 12:41 37.02254 -73.06757 17061 ft 476 kts 235°
2026-04-26 12:41 36.99943 -73.09726 17046 ft 480 kts 217°
2026-04-26 12:42 36.96955 -73.11579 17050 ft 481 kts 198°
2026-04-26 12:42 36.93636 -73.12096 17051 ft 489 kts 179°
2026-04-26 12:42 36.90272 -73.11219 17048 ft 501 kts 160°
2026-04-26 12:42 36.87250 -73.09023 17050 ft 507 kts 142°
2026-04-26 12:43 36.84922 -73.05747 17051 ft 509 kts 123°
2026-04-26 12:43 36.83502 -73.01666 17049 ft 518 kts 104°
2026-04-26 12:43 36.82923 -72.97226 17050 ft 518 kts 98°
2026-04-26 12:43 36.82509 -72.92782 17043 ft 514 kts 97°
2026-04-26 12:44 36.82106 -72.88330 17052 ft 520 kts 97°
2026-04-26 12:44 36.81702 -72.83870 17049 ft 513 kts 97°
2026-04-26 12:44 36.81299 -72.79434 17051 ft 517 kts 97°
2026-04-26 12:44 36.80894 -72.74969 17052 ft 514 kts 97°
2026-04-26 12:45 36.80494 -72.70549 17050 ft 515 kts 97°
2026-04-26 12:45 36.80091 -72.66098 17048 ft 513 kts 97°
2026-04-26 12:45 36.79689 -72.61677 17053 ft 514 kts 97°
2026-04-26 12:45 36.79286 -72.57232 17048 ft 518 kts 97°
2026-04-26 12:46 36.78885 -72.52796 17051 ft 512 kts 97°
2026-04-26 12:46 36.78483 -72.48365 17050 ft 516 kts 97°
2026-04-26 12:46 36.78078 -72.43916 17049 ft 513 kts 97°
2026-04-26 12:46 36.77676 -72.39500 17051 ft 512 kts 97°
2026-04-26 12:47 36.77274 -72.35069 17049 ft 517 kts 97°
2026-04-26 12:47 36.76871 -72.30634 17049 ft 511 kts 97°
2026-04-26 12:47 36.76472 -72.26220 17050 ft 515 kts 97°
2026-04-26 12:47 36.76070 -72.21781 17049 ft 511 kts 97°
2026-04-26 12:48 36.75671 -72.17378 17050 ft 514 kts 97°
2026-04-26 12:48 36.75268 -72.12926 17049 ft 517 kts 97°
2026-04-26 12:48 36.74868 -72.08508 17051 ft 511 kts 97°
2026-04-26 12:48 36.74468 -72.04096 17051 ft 516 kts 97°
2026-04-26 12:49 36.74065 -71.99646 17055 ft 513 kts 97°
2026-04-26 12:49 36.73667 -71.95288 17047 ft 501 kts 97°
2026-04-26 12:49 36.73278 -71.90975 17058 ft 500 kts 97°
2026-04-26 12:49 36.72888 -71.86670 17058 ft 499 kts 97°
2026-04-26 12:50 36.72507 -71.82409 17048 ft 503 kts 97°
2026-04-26 12:50 36.72116 -71.78075 17053 ft 504 kts 97°
2026-04-26 12:50 36.71724 -71.73744 17056 ft 504 kts 97°
2026-04-26 12:50 36.71330 -71.69399 17048 ft 505 kts 97°
2026-04-26 12:51 36.70930 -71.64998 17050 ft 517 kts 97°
2026-04-26 12:51 36.70530 -71.60598 17050 ft 510 kts 97°
2026-04-26 12:51 36.70127 -71.56180 17051 ft 515 kts 97°
2026-04-26 12:51 36.69724 -71.51767 17050 ft 510 kts 97°
2026-04-26 12:52 36.69323 -71.47367 17051 ft 514 kts 97°
2026-04-26 12:52 36.68919 -71.42938 17049 ft 512 kts 97°
2026-04-26 12:52 36.68518 -71.38529 17053 ft 513 kts 97°
2026-04-26 12:52 36.68113 -71.34095 17048 ft 517 kts 97°
2026-04-26 12:53 36.67712 -71.29686 17051 ft 511 kts 97°
2026-04-26 12:53 36.67309 -71.25264 17050 ft 516 kts 97°
2026-04-26 12:53 36.66906 -71.20838 17045 ft 511 kts 97°
2026-04-26 12:53 36.66503 -71.16430 17052 ft 514 kts 97°
2026-04-26 12:54 36.66094 -71.11994 17048 ft 513 kts 97°
2026-04-26 12:54 36.65687 -71.07609 17051 ft 511 kts 97°
2026-04-26 12:54 36.64937 -71.03279 17056 ft 514 kts 112°
2026-04-26 12:54 36.63920 -71.00626 17063 ft 511 kts 123°
2026-04-26 12:55 36.61702 -70.97234 17045 ft 501 kts 140°
2026-04-26 12:55 36.58839 -70.94834 17052 ft 499 kts 158°
2026-04-26 12:55 36.55533 -70.93576 17050 ft 496 kts 174°
2026-04-26 12:55 36.52114 -70.93579 17050 ft 491 kts 192°
2026-04-26 12:56 36.48880 -70.94833 17050 ft 486 kts 208°
2026-04-26 12:56 36.46125 -70.97210 17050 ft 483 kts 226°
2026-04-26 12:56 36.44089 -71.00488 17048 ft 480 kts 243°
2026-04-26 12:56 36.42959 -71.04360 17054 ft 480 kts 260°
2026-04-26 12:57 36.42817 -71.08497 17055 ft 481 kts 275°
2026-04-26 12:57 36.43200 -71.12608 17040 ft 476 kts 276°
2026-04-26 12:57 36.43627 -71.16690 17049 ft 479 kts 276°
2026-04-26 12:58 36.44492 -71.24886 17050 ft 477 kts 276°
2026-04-26 12:58 36.44927 -71.28995 17051 ft 482 kts 276°
2026-04-26 12:58 36.45360 -71.33096 17051 ft 476 kts 276°
2026-04-26 12:58 36.45793 -71.37188 17050 ft 481 kts 276°
2026-04-26 12:59 36.46230 -71.41306 17049 ft 477 kts 276°
2026-04-26 12:59 36.46664 -71.45389 17052 ft 478 kts 276°
2026-04-26 12:59 36.47101 -71.49509 17050 ft 482 kts 277°
2026-04-26 12:59 36.47530 -71.53544 17048 ft 477 kts 276°
2026-04-26 13:00 36.47966 -71.57647 17052 ft 482 kts 276°
2026-04-26 13:00 36.48402 -71.61757 17048 ft 477 kts 276°
2026-04-26 13:00 36.48836 -71.65844 17051 ft 480 kts 276°
2026-04-26 13:00 36.49274 -71.69970 17050 ft 480 kts 277°
2026-04-26 13:01 36.49708 -71.74054 17051 ft 477 kts 276°
2026-04-26 13:01 36.50146 -71.78173 17051 ft 482 kts 276°
2026-04-26 13:01 36.50581 -71.82275 17049 ft 476 kts 276°
2026-04-26 13:01 36.51017 -71.86379 17052 ft 482 kts 277°
2026-04-26 13:02 36.51454 -71.90505 17046 ft 478 kts 276°
2026-04-26 13:02 36.51894 -71.94599 17054 ft 479 kts 278°
2026-04-26 13:02 36.52519 -71.98697 17047 ft 483 kts 280°
2026-04-26 13:02 36.53149 -72.02761 17049 ft 478 kts 280°
2026-04-26 13:03 36.53780 -72.06838 17050 ft 482 kts 280°
2026-04-26 13:03 36.54412 -72.10917 17050 ft 477 kts 280°
2026-04-26 13:03 36.55042 -72.14981 17051 ft 481 kts 280°
2026-04-26 13:03 36.55674 -72.19064 17049 ft 478 kts 280°
2026-04-26 13:04 36.56304 -72.23126 17051 ft 479 kts 280°
2026-04-26 13:04 36.56936 -72.27212 17049 ft 482 kts 280°
2026-04-26 13:04 36.57565 -72.31273 17049 ft 478 kts 280°
2026-04-26 13:04 36.58197 -72.35353 17050 ft 483 kts 280°
2026-04-26 13:05 36.58828 -72.39422 17050 ft 476 kts 280°
2026-04-26 13:05 36.59459 -72.43480 17051 ft 481 kts 280°
2026-04-26 13:05 36.60095 -72.47567 17048 ft 477 kts 280°
2026-04-26 13:05 36.60724 -72.51611 17050 ft 479 kts 280°
2026-04-26 13:06 36.61357 -72.55678 17049 ft 475 kts 280°
2026-04-26 13:06 36.61987 -72.59724 17051 ft 478 kts 280°
2026-04-26 13:06 36.62619 -72.63798 17049 ft 478 kts 280°
2026-04-26 13:06 36.63248 -72.67840 17051 ft 475 kts 280°
2026-04-26 13:07 36.63880 -72.71897 17050 ft 479 kts 280°
2026-04-26 13:07 36.64511 -72.75944 17043 ft 474 kts 280°
2026-04-26 13:07 36.65139 -72.79978 17054 ft 477 kts 280°
2026-04-26 13:07 36.65772 -72.84041 17046 ft 475 kts 280°
2026-04-26 13:08 36.66446 -72.88049 17048 ft 475 kts 286°
2026-04-26 13:08 36.67855 -72.91796 17059 ft 481 kts 303°
2026-04-26 13:08 36.70105 -72.94831 17052 ft 481 kts 320°
2026-04-26 13:08 36.73044 -72.96920 17049 ft 494 kts 337°
2026-04-26 13:09 36.76411 -72.97856 17047 ft 502 kts 354°
2026-04-26 13:09 36.79871 -72.97531 17052 ft 502 kts 11°
2026-04-26 13:09 36.83156 -72.95951 17049 ft 513 kts 28°
2026-04-26 13:09 36.85992 -72.93237 17050 ft 518 kts 45°
2026-04-26 13:10 36.88120 -72.89616 17049 ft 520 kts 62°
2026-04-26 13:10 36.89359 -72.85391 17050 ft 518 kts 79°
2026-04-26 13:10 36.89605 -72.80946 17056 ft 514 kts 95°
2026-04-26 13:10 36.89265 -72.76478 17040 ft 519 kts 97°
2026-04-26 13:11 36.88836 -72.72044 17048 ft 513 kts 98°
2026-04-26 13:11 36.88383 -72.67598 17053 ft 518 kts 98°
2026-04-26 13:11 36.87927 -72.63153 17048 ft 512 kts 98°
2026-04-26 13:11 36.87472 -72.58730 17052 ft 516 kts 98°
2026-04-26 13:12 36.87015 -72.54287 17049 ft 513 kts 98°
2026-04-26 13:12 36.86562 -72.49868 17051 ft 514 kts 98°
2026-04-26 13:12 36.86105 -72.45421 17047 ft 516 kts 98°
2026-04-26 13:12 36.85653 -72.41008 17054 ft 513 kts 98°
2026-04-26 13:13 36.85196 -72.36576 17049 ft 516 kts 98°
2026-04-26 13:13 36.84740 -72.32148 17050 ft 511 kts 98°
2026-04-26 13:13 36.84286 -72.27741 17051 ft 515 kts 98°
2026-04-26 13:13 36.83830 -72.23305 17049 ft 512 kts 98°
2026-04-26 13:14 36.83384 -72.18956 17051 ft 513 kts 98°
2026-04-26 13:14 36.82928 -72.14521 17049 ft 516 kts 98°
2026-04-26 13:14 36.82476 -72.10117 17051 ft 512 kts 98°
2026-04-26 13:14 36.82022 -72.05686 17046 ft 517 kts 98°
2026-04-26 13:15 36.81570 -72.01272 17054 ft 510 kts 98°
2026-04-26 13:15 36.81116 -71.96855 17050 ft 515 kts 98°
2026-04-26 13:15 36.80662 -71.92458 17050 ft 511 kts 98°
2026-04-26 13:15 36.80206 -71.88047 17051 ft 515 kts 98°
2026-04-26 13:16 36.79750 -71.83636 17047 ft 510 kts 98°
2026-04-26 13:16 36.79295 -71.79230 17052 ft 514 kts 98°
2026-04-26 13:16 36.78837 -71.74795 17049 ft 516 kts 98°
2026-04-26 13:16 36.78385 -71.70394 17051 ft 512 kts 98°
2026-04-26 13:17 36.77473 -71.61551 17048 ft 511 kts 98°
2026-04-26 13:17 36.77018 -71.57141 17050 ft 515 kts 98°
2026-04-26 13:18 36.76106 -71.48308 17051 ft 514 kts 98°
2026-04-26 13:18 36.75648 -71.43875 17050 ft 516 kts 98°
2026-04-26 13:18 36.74732 -71.35047 17050 ft 516 kts 98°
2026-04-26 13:19 36.74274 -71.30634 17050 ft 511 kts 98°
2026-04-26 13:19 36.73817 -71.26228 17050 ft 515 kts 98°
2026-04-26 13:19 36.73355 -71.21792 17049 ft 512 kts 98°
2026-04-26 13:19 36.72896 -71.17387 17047 ft 513 kts 98°
2026-04-26 13:20 36.72434 -71.12959 17051 ft 516 kts 98°
2026-04-26 13:20 36.72081 -71.08551 17038 ft 512 kts 89°
2026-04-26 13:20 36.72656 -71.04162 17063 ft 518 kts 71°
2026-04-26 13:20 36.74271 -71.00178 17050 ft 512 kts 52°
2026-04-26 13:21 36.76750 -70.97050 17050 ft 509 kts 34°
2026-04-26 13:21 36.78773 -70.95567 17051 ft 510 kts 21°
2026-04-26 13:21 36.83337 -70.94306 17050 ft 502 kts 357°
2026-04-26 13:21 36.86747 -70.94964 17049 ft 495 kts 338°
2026-04-26 13:22 36.89777 -70.96913 17047 ft 489 kts 320°
2026-04-26 13:22 36.92101 -70.99924 17054 ft 478 kts 301°
2026-04-26 13:22 36.93488 -71.03672 17057 ft 478 kts 284°
2026-04-26 13:22 36.94287 -71.07701 17035 ft 474 kts 282°
2026-04-26 13:23 36.95022 -71.11718 17049 ft 476 kts 282°
2026-04-26 13:23 36.95761 -71.15771 17050 ft 477 kts 282°
2026-04-26 13:23 36.96496 -71.19799 17050 ft 477 kts 282°
2026-04-26 13:23 36.97235 -71.23850 17044 ft 476 kts 282°
2026-04-26 13:24 36.97972 -71.27874 17053 ft 476 kts 282°
2026-04-26 13:24 36.98714 -71.31930 17043 ft 478 kts 282°
2026-04-26 13:24 36.99452 -71.35958 17049 ft 475 kts 282°
2026-04-26 13:24 37.00053 -71.40033 17045 ft 477 kts 271°
2026-04-26 13:25 37.00049 -71.44176 17053 ft 473 kts 268°
2026-04-26 13:25 36.99958 -71.48246 17042 ft 477 kts 268°
2026-04-26 13:25 36.99860 -71.52395 17054 ft 474 kts 268°
2026-04-26 13:25 36.99761 -71.56511 17050 ft 476 kts 268°
2026-04-26 13:26 36.99660 -71.60659 17048 ft 473 kts 268°
2026-04-26 13:26 36.99559 -71.64767 17051 ft 475 kts 267°
2026-04-26 13:26 36.99456 -71.68911 17049 ft 478 kts 267°
2026-04-26 13:26 36.99350 -71.73095 17052 ft 474 kts 267°
2026-04-26 13:27 36.99244 -71.77234 17049 ft 477 kts 267°
2026-04-26 13:27 36.99137 -71.81354 17050 ft 475 kts 267°
2026-04-26 13:27 36.99029 -71.85500 17049 ft 475 kts 267°
2026-04-26 13:27 36.98919 -71.89621 17051 ft 476 kts 267°
2026-04-26 13:28 36.98808 -71.93761 17050 ft 474 kts 267°
2026-04-26 13:28 36.98696 -71.97876 17051 ft 475 kts 267°
2026-04-26 13:28 36.98582 -72.02020 17051 ft 478 kts 267°
2026-04-26 13:28 36.98467 -72.06155 17050 ft 473 kts 267°
2026-04-26 13:29 36.98350 -72.10292 17050 ft 478 kts 267°
2026-04-26 13:29 36.98273 -72.13023 17049 ft 472 kts 267°
2026-04-26 13:29 36.98114 -72.18539 17051 ft 477 kts 267°
2026-04-26 13:29 36.97994 -72.22665 17050 ft 472 kts 267°
2026-04-26 13:30 36.97875 -72.26730 17051 ft 478 kts 267°
2026-04-26 13:30 36.97752 -72.30864 17052 ft 473 kts 267°
2026-04-26 13:30 36.97628 -72.34999 17050 ft 478 kts 267°
2026-04-26 13:30 36.97501 -72.39181 17050 ft 473 kts 267°
2026-04-26 13:31 36.97375 -72.43264 17051 ft 478 kts 267°
2026-04-26 13:31 36.97248 -72.47378 17053 ft 474 kts 267°
2026-04-26 13:31 36.97118 -72.51524 17049 ft 477 kts 267°
2026-04-26 13:31 36.96988 -72.55637 17051 ft 475 kts 267°
2026-04-26 13:32 36.96855 -72.59778 17049 ft 474 kts 267°
2026-04-26 13:32 36.96722 -72.63884 17050 ft 473 kts 267°
2026-04-26 13:32 36.96587 -72.68014 17051 ft 477 kts 267°
2026-04-26 13:32 36.96452 -72.72122 17050 ft 472 kts 267°
2026-04-26 13:33 36.96314 -72.76250 17050 ft 477 kts 267°
2026-04-26 13:33 36.96176 -72.80362 17051 ft 473 kts 267°
2026-04-26 13:33 36.96036 -72.84494 17050 ft 476 kts 267°
2026-04-26 13:33 36.95896 -72.88596 17052 ft 473 kts 267°
2026-04-26 13:34 36.95754 -72.92719 17049 ft 476 kts 267°
2026-04-26 13:34 36.95610 -72.96848 17051 ft 475 kts 267°
2026-04-26 13:34 36.95465 -73.00971 17051 ft 475 kts 267°
2026-04-26 13:34 36.95415 -73.02370 17051 ft 475 kts 267°
2026-04-26 13:35 36.95171 -73.09224 17045 ft 475 kts 267°
2026-04-26 13:35 36.95023 -73.13316 17054 ft 470 kts 267°
2026-04-26 13:35 36.94874 -73.17429 17049 ft 474 kts 267°
2026-04-26 13:35 36.94723 -73.21515 17050 ft 471 kts 267°
2026-04-26 13:36 36.94571 -73.25623 17050 ft 472 kts 267°
2026-04-26 13:36 36.94418 -73.29716 17051 ft 474 kts 267°
2026-04-26 13:36 36.94263 -73.33836 17049 ft 470 kts 267°
2026-04-26 13:36 36.94107 -73.37922 17051 ft 474 kts 267°
2026-04-26 13:37 36.93950 -73.42022 17049 ft 469 kts 267°
2026-04-26 13:37 36.93792 -73.46115 17051 ft 474 kts 267°
2026-04-26 13:37 36.93632 -73.50216 17049 ft 469 kts 267°
2026-04-26 13:37 36.93472 -73.54308 17050 ft 474 kts 266°
2026-04-26 13:38 36.93310 -73.58399 17050 ft 469 kts 267°
2026-04-26 13:38 36.93147 -73.62490 17050 ft 474 kts 266°
2026-04-26 13:38 36.92983 -73.66569 17050 ft 469 kts 266°
2026-04-26 13:38 36.92817 -73.70669 17050 ft 473 kts 266°
2026-04-26 13:39 36.92651 -73.74741 17050 ft 470 kts 266°
2026-04-26 13:39 36.92483 -73.78841 17050 ft 472 kts 266°
2026-04-26 13:39 36.92372 -73.81536 17050 ft 469 kts 266°
2026-04-26 13:39 36.92143 -73.87020 17049 ft 470 kts 266°
2026-04-26 13:40 36.91975 -73.91035 17051 ft 472 kts 266°
2026-04-26 13:40 36.91802 -73.95130 17050 ft 469 kts 266°
2026-04-26 13:40 36.91629 -73.99199 17051 ft 471 kts 266°
2026-04-26 13:40 36.91454 -74.03287 17049 ft 467 kts 266°
2026-04-26 13:41 36.91279 -74.07349 17051 ft 472 kts 266°
2026-04-26 13:41 36.91101 -74.11430 17049 ft 467 kts 266°
2026-04-26 13:41 36.90981 -74.14181 17051 ft 471 kts 266°
2026-04-26 13:41 36.90804 -74.18216 17049 ft 469 kts 266°
2026-04-26 13:42 36.90624 -74.22277 17051 ft 471 kts 266°
2026-04-26 13:42 36.90440 -74.26415 17040 ft 467 kts 266°
2026-04-26 13:42 36.90262 -74.30410 17055 ft 469 kts 266°
2026-04-26 13:42 36.90078 -74.34497 17047 ft 468 kts 266°
2026-04-26 13:43 36.89894 -74.38553 17051 ft 471 kts 266°
2026-04-26 13:43 36.89708 -74.42640 17049 ft 467 kts 266°
2026-04-26 13:43 36.89521 -74.46705 17050 ft 472 kts 266°
2026-04-26 13:43 36.89333 -74.50788 17049 ft 468 kts 266°
2026-04-26 13:44 36.89143 -74.54876 17051 ft 473 kts 266°
2026-04-26 13:44 36.88953 -74.58946 17050 ft 470 kts 266°
2026-04-26 13:44 36.88761 -74.63039 17050 ft 473 kts 266°
2026-04-26 13:44 36.88569 -74.67105 17051 ft 470 kts 266°
2026-04-26 13:45 36.88375 -74.71206 17050 ft 472 kts 266°
2026-04-26 13:45 36.88181 -74.75270 17051 ft 471 kts 266°
2026-04-26 13:45 36.87984 -74.79368 17049 ft 470 kts 266°
2026-04-26 13:45 36.87789 -74.83437 17051 ft 472 kts 267°
2026-04-26 13:46 36.87774 -74.87543 17052 ft 470 kts 271°
2026-04-26 13:46 36.87847 -74.91626 16479 ft 469 kts 271°
2026-04-26 13:46 36.87920 -74.95618 15642 ft 442 kts 271°
2026-04-26 13:46 36.87989 -74.99277 14847 ft 401 kts 271°
2026-04-26 13:47 36.88051 -75.02605 14116 ft 367 kts 271°
2026-04-26 13:47 36.88107 -75.05653 13443 ft 337 kts 271°
2026-04-26 13:47 36.88159 -75.08461 12823 ft 310 kts 271°
2026-04-26 13:47 36.88205 -75.11052 12248 ft 287 kts 271°
2026-04-26 13:48 36.88248 -75.13444 11762 ft 264 kts 271°
2026-04-26 13:48 36.88285 -75.15596 11361 ft 227 kts 271°
2026-04-26 13:48 36.88315 -75.17334 11007 ft 173 kts 270°
2026-04-26 13:48 36.88334 -75.18620 10613 ft 127 kts 270°
2026-04-26 13:49 36.88319 -75.19912 9066 ft 230 kts 271°
2026-04-26 13:49 36.88402 -75.22538 7829 ft 354 kts 271°
2026-04-26 13:49 36.88471 -75.25775 8114 ft 370 kts 270°
2026-04-26 13:49 36.88525 -75.28729 8013 ft 291 kts 270°
2026-04-26 13:50 36.88565 -75.30938 8006 ft 227 kts 270°
2026-04-26 13:50 36.88597 -75.32602 8005 ft 157 kts 269°
2026-04-26 13:50 36.88623 -75.34138 8037 ft 197 kts 270°
2026-04-26 13:50 36.88655 -75.36086 8009 ft 257 kts 270°
2026-04-26 13:51 36.88696 -75.38465 7975 ft 269 kts 270°
2026-04-26 13:51 36.88735 -75.40810 7984 ft 270 kts 270°
2026-04-26 13:51 36.88775 -75.43155 7996 ft 270 kts 270°
2026-04-26 13:51 36.88814 -75.45503 7991 ft 270 kts 270°
2026-04-26 13:52 36.88853 -75.47843 7987 ft 270 kts 270°
2026-04-26 13:52 36.88892 -75.50190 7990 ft 270 kts 270°
2026-04-26 13:52 36.88931 -75.52537 7991 ft 270 kts 270°
2026-04-26 13:52 36.88970 -75.54883 7716 ft 269 kts 270°
2026-04-26 13:53 36.89008 -75.57207 7430 ft 267 kts 270°
2026-04-26 13:53 36.89045 -75.59520 7141 ft 265 kts 270°
2026-04-26 13:53 36.89082 -75.61822 6852 ft 265 kts 270°
2026-04-26 13:53 36.89120 -75.64125 6564 ft 265 kts 270°
2026-04-26 13:54 36.89156 -75.66417 6225 ft 262 kts 270°
2026-04-26 13:54 36.89191 -75.68688 5854 ft 261 kts 270°
2026-04-26 13:54 36.89226 -75.70821 5500 ft 261 kts 271°
2026-04-26 13:55 36.89272 -75.75383 4201 ft 264 kts 271°
2026-04-26 13:55 36.89275 -75.76911 3931 ft 259 kts 272°
2026-04-26 13:55 36.89368 -75.82205 3963 ft 262 kts 273°
2026-04-26 13:56 36.89409 -75.84477 3956 ft 262 kts 273°
2026-04-26 13:56 36.89451 -75.86750 3975 ft 262 kts 273°
2026-04-26 13:56 36.89494 -75.89032 3975 ft 262 kts 274°
2026-04-26 13:57 36.89697 -75.90827 3944 ft 263 kts 278°
2026-04-26 13:57 36.89609 -75.93079 3625 ft 252 kts 259°
2026-04-26 13:57 36.89073 -75.95082 3156 ft 235 kts 246°
2026-04-26 13:57 36.88032 -75.96600 2223 ft 225 kts 219°
2026-04-26 13:58 36.86933 -75.97733 1632 ft 181 kts 223°
2026-04-26 13:58 36.86085 -75.98693 1222 ft 159 kts 226°
2026-04-26 13:58 36.85281 -75.99636 941 ft 158 kts 224°
2026-04-26 13:58 36.84475 -76.00567 642 ft 157 kts 223°
2026-04-26 13:59 36.83663 -76.01482 343 ft 157 kts 223°
2026-04-26 13:59 36.82849 -76.02389 38 ft 156 kts 223°
2026-04-26 13:59 36.82260 -76.03038 30 ft 52 kts 223°
2026-04-26 14:00 36.81889 -76.03484 30 ft 20 kts 222°
2026-04-26 14:00 36.81784 -76.03593 30 ft 17 kts 201°
2026-04-26 14:00 36.81727 -76.03569 30 ft 12 kts 129°
2026-04-26 14:01 36.81630 -76.03426 30 ft 17 kts 131°
2026-04-26 14:01 36.81586 -76.03390 30 ft 3 kts 213°
2026-04-26 14:01 36.81575 -76.03403 30 ft 0 kts 223°